• In Portugal
  • List of Countries
  • For 7 days
  • Water Temperature
  • Satellite Maps
  • Weather Map
  • Weather Widgets
  • user-avatar
    Login

    Hourly Weather Artashat

    Today, 19 October, Friday

    Time Temperature Precipitation Wind Pressure Humidity
    00:00 +7°C° 0 mm 0 mps 603 mmHg 58%
    01:00 +6°C° 0 mm 0 mps 603 mmHg 59%
    02:00 +6°C° 0 mm 0 mps 603 mmHg 61%
    03:00 +5°C° 0 mm 0 mps 603 mmHg 63%
    04:00 +5°C° 0 mm 0 mps 603 mmHg 64%
    05:00 +5°C° 0 mm 0 mps 603 mmHg 64%
    06:00 +4°C° 0 mm 0 mps 603 mmHg 65%
    07:00 +8°C° 0 mm 1 mps 604 mmHg 57%
    08:00 +10°C° 0 mm 1 mps 605 mmHg 48%
    09:00 +12°C° 0 mm 1 mps 606 mmHg 40%
    10:00 +13°C° 0 mm 1 mps 606 mmHg 37%
    11:00 +14°C° 0 mm 1 mps 606 mmHg 34%
    12:00 +15°C° 0 mm 1 mps 606 mmHg 32%
    13:00 +16°C° 0 mm 2 mps 606 mmHg 31%
    14:00 +16°C° 0 mm 2 mps 606 mmHg 30%
    15:00 +16°C° 0 mm 2 mps 606 mmHg 30%
    16:00 +15°C° 0 mm 2 mps 605 mmHg 34%
    17:00 +13°C° 0 mm 1 mps 605 mmHg 38%
    18:00 +11°C° 0 mm 1 mps 604 mmHg 42%
    19:00 +11°C° 0 mm 1 mps 604 mmHg 44%
    20:00 +10°C° 0 mm 1 mps 604 mmHg 46%
    21:00 +10°C° 0 mm 1 mps 604 mmHg 49%
    22:00 +9°C° 0 mm 1 mps 604 mmHg 50%
    23:00 +9°C° 0 mm 1 mps 604 mmHg 51%

    Tomorrow, 20 October, Saturday

    Time Temperature Precipitation Wind Pressure Humidity
    00:00 +7°C° 0 mm 0 mps 603 mmHg 53%
    01:00 +7°C° 0 mm 0 mps 603 mmHg 54%
    02:00 +7°C° 0 mm 0 mps 603 mmHg 55%
    03:00 +6°C° 0 mm 0 mps 603 mmHg 56%
    04:00 +6°C° 0 mm 0 mps 602 mmHg 57%
    05:00 +6°C° 0 mm 0 mps 602 mmHg 58%
    06:00 +5°C° 0 mm 0 mps 602 mmHg 59%
    07:00 +8°C° 0 mm 1 mps 603 mmHg 52%
    08:00 +11°C° 0 mm 1 mps 604 mmHg 45%
    09:00 +13°C° 0 mm 1 mps 605 mmHg 38%
    10:00 +14°C° 0 mm 1 mps 606 mmHg 35%
    11:00 +15°C° 0 mm 1 mps 606 mmHg 32%
    12:00 +16°C° 0 mm 1 mps 606 mmHg 30%
    13:00 +16°C° 0 mm 2 mps 605 mmHg 29%
    14:00 +17°C° 0 mm 2 mps 605 mmHg 29%
    15:00 +17°C° 0 mm 2 mps 605 mmHg 29%
    16:00 +15°C° 0 mm 2 mps 604 mmHg 32%
    17:00 +14°C° 0 mm 1 mps 604 mmHg 36%
    18:00 +12°C° 0 mm 1 mps 603 mmHg 40%
    19:00 +12°C° 0 mm 1 mps 603 mmHg 42%
    20:00 +11°C° 0 mm 1 mps 603 mmHg 43%
    21:00 +11°C° 0 mm 1 mps 603 mmHg 45%
    22:00 +10°C° 0 mm 1 mps 603 mmHg 46%
    23:00 +10°C° 0 mm 1 mps 602 mmHg 48%

    Day after tomorrow, 21 October, Sunday

    Time Temperature Precipitation Wind Pressure Humidity
    00:00 +10°C° 0 mm 1 mps 602 mmHg 49%
    01:00 +9°C° 0 mm 1 mps 602 mmHg 50%
    02:00 +9°C° 0 mm 1 mps 602 mmHg 51%
    03:00 +9°C° 0 mm 1 mps 602 mmHg 52%
    04:00 +8°C° 0 mm 1 mps 601 mmHg 54%
    05:00 +8°C° 0 mm 1 mps 601 mmHg 55%
    06:00 +7°C° 0 mm 0 mps 601 mmHg 56%
    07:00 +10°C° 0 mm 1 mps 602 mmHg 50%
    08:00 +11°C° 0 mm 1 mps 603 mmHg 45%
    09:00 +13°C° 0 mm 1 mps 604 mmHg 40%
    10:00 +14°C° 0 mm 1 mps 604 mmHg 38%
    11:00 +14°C° 0 mm 1 mps 604 mmHg 37%
    12:00 +15°C° 0 mm 2 mps 604 mmHg 35%
    13:00 +15°C° 0.1 mm 2 mps 604 mmHg 36%
    14:00 +15°C° 0.1 mm 1 mps 604 mmHg 37%
    15:00 +15°C° 0.1 mm 1 mps 603 mmHg 38%
    16:00 +14°C° 0 mm 1 mps 603 mmHg 42%
    17:00 +13°C° 0 mm 1 mps 602 mmHg 45%
    18:00 +11°C° 0 mm 1 mps 602 mmHg 49%
    19:00 +11°C° 0 mm 1 mps 602 mmHg 51%
    20:00 +10°C° 0 mm 1 mps 602 mmHg 54%
    21:00 +10°C° 0 mm 1 mps 601 mmHg 56%
    22:00 +9°C° 0 mm 1 mps 601 mmHg 58%
    23:00 +9°C° 0 mm 1 mps 601 mmHg 61%

    22 October, Monday

    Time Temperature Precipitation Wind Pressure Humidity
    00:00 +9°C° 0 mm 1 mps 601 mmHg 63%
    01:00 +8°C° 0 mm 1 mps 600 mmHg 65%
    02:00 +8°C° 0 mm 1 mps 600 mmHg 67%
    03:00 +8°C° 0 mm 1 mps 600 mmHg 69%
    04:00 +7°C° 0 mm 1 mps 600 mmHg 71%
    05:00 +7°C° 0 mm 1 mps 600 mmHg 72%
    06:00 +7°C° 0 mm 1 mps 600 mmHg 74%
    07:00 +9°C° 0 mm 1 mps 601 mmHg 66%
    08:00 +10°C° 0 mm 1 mps 602 mmHg 58%
    09:00 +12°C° 0 mm 1 mps 603 mmHg 51%
    10:00 +13°C° 0 mm 2 mps 603 mmHg 46%
    11:00 +14°C° 0 mm 2 mps 604 mmHg 42%
    12:00 +15°C° 0 mm 2 mps 604 mmHg 38%
    13:00 +16°C° 0 mm 3 mps 604 mmHg 37%
    14:00 +16°C° 0 mm 3 mps 604 mmHg 36%
    15:00 +16°C° 0 mm 3 mps 603 mmHg 34%
    16:00 +14°C° 0 mm 3 mps 603 mmHg 39%
    17:00 +13°C° 0 mm 2 mps 603 mmHg 43%
    18:00 +12°C° 0 mm 2 mps 602 mmHg 48%
    19:00 +10°C° 0 mm 2 mps 603 mmHg 50%
    20:00 +11°C° 0 mm 1 mps 603 mmHg 52%
    21:00 +10°C° 0 mm 1 mps 603 mmHg 55%
    22:00 +10°C° 0 mm 1 mps 603 mmHg 56%
    23:00 +9°C° 0 mm 1 mps 602 mmHg 58%

    23 October, Tuesday

    Time Temperature Precipitation Wind Pressure Humidity
    00:00 +8°C° 0 mm 2 mps 602 mmHg 59%
    01:00 +7°C° 0 mm 2 mps 602 mmHg 60%
    02:00 +7°C° 0 mm 2 mps 602 mmHg 62%
    03:00 +7°C° 0 mm 2 mps 602 mmHg 63%
    04:00 +6°C° 0 mm 2 mps 602 mmHg 64%
    05:00 +6°C° 0 mm 2 mps 602 mmHg 65%
    06:00 +6°C° 0 mm 2 mps 602 mmHg 66%
    07:00 +8°C° 0 mm 2 mps 603 mmHg 59%
    08:00 +9°C° 0 mm 2 mps 604 mmHg 52%
    09:00 +12°C° 0 mm 2 mps 605 mmHg 45%
    10:00 +13°C° 0 mm 2 mps 605 mmHg 41%
    11:00 +14°C° 0 mm 2 mps 605 mmHg 37%
    12:00 +16°C° 0 mm 2 mps 605 mmHg 33%
    13:00 +15°C° 0.1 mm 2 mps 605 mmHg 35%
    14:00 +15°C° 0.1 mm 2 mps 604 mmHg 37%
    15:00 +15°C° 0.1 mm 2 mps 604 mmHg 39%
    16:00 +14°C° 0.2 mm 2 mps 604 mmHg 42%
    17:00 +13°C° 0.2 mm 2 mps 604 mmHg 46%
    18:00 +12°C° 0.2 mm 2 mps 604 mmHg 49%
    19:00 +12°C° 0.1 mm 2 mps 604 mmHg 52%
    20:00 +10°C° 0.1 mm 2 mps 604 mmHg 54%
    21:00 +9°C° 0.1 mm 2 mps 604 mmHg 57%
    22:00 +9°C° 0.1 mm 2 mps 603 mmHg 58%
    23:00 +9°C° 0.1 mm 2 mps 603 mmHg 60%

    24 October, Wednesday

    Time Temperature Precipitation Wind Pressure Humidity
    00:00 +9°C° 0.1 mm 1 mps 603 mmHg 61%
    01:00 +9°C° 0 mm 1 mps 603 mmHg 62%
    02:00 +9°C° 0 mm 1 mps 603 mmHg 64%
    03:00 +8°C° 0 mm 1 mps 602 mmHg 65%
    04:00 +8°C° 0 mm 1 mps 602 mmHg 66%
    05:00 +8°C° 0 mm 1 mps 602 mmHg 67%
    06:00 +7°C° 0 mm 1 mps 602 mmHg 68%
    07:00 +8°C° 0 mm 2 mps 602 mmHg 61%
    08:00 +10°C° 0 mm 2 mps 603 mmHg 55%
    09:00 +12°C° 0 mm 2 mps 604 mmHg 48%
    10:00 +13°C° 0 mm 3 mps 604 mmHg 44%
    11:00 +14°C° 0 mm 3 mps 604 mmHg 39%
    12:00 +16°C° 0 mm 3 mps 604 mmHg 35%
    13:00 +15°C° 0 mm 4 mps 603 mmHg 34%
    14:00 +17°C° 0 mm 4 mps 603 mmHg 33%
    15:00 +17°C° 0 mm 4 mps 602 mmHg 33%
    16:00 +14°C° 0 mm 3 mps 602 mmHg 37%
    17:00 +13°C° 0 mm 3 mps 601 mmHg 42%
    18:00 +12°C° 0 mm 2 mps 600 mmHg 46%
    19:00 +12°C° 0 mm 2 mps 600 mmHg 48%
    20:00 +11°C° 0 mm 1 mps 600 mmHg 50%
    21:00 +11°C° 0 mm 1 mps 600 mmHg 52%
    22:00 +11°C° 0 mm 1 mps 599 mmHg 53%
    23:00 +10°C° 0 mm 2 mps 599 mmHg 53%
    Show more